COSMOS 1168

Satellite information

Favourite Embed

Satellite Type and Status

PAYLOADIN ORBIT

Key statistics

Satellite COSMOS 1168 at a glance.

Uptime

16548

Days in orbit

Revolutions

≈ 13.8

Per day

Orbit

LEO

Low Earth Orbit

Inclination

82.9

Latest

Satellite identification and parameters

Extended collection of information and parameters for COSMOS 1168.

Object identification

Identified? True

Debris? False

Object name: COSMOS 1168

International designator: 1980-022A

Object number (NORAD): 11735

Object ID (CCSDS): 11735

Country: COMMONWEALTH OF INDEPENDENT STATES (CIS)

Current information (Y/N): Y

RCS size: LARGE

Orbital parameters

Period: 104.711 minutes

Inclination: 82.9464 deg

SMA: 7359.057 km

Apoapsis: 1006.001 km

Periapsis: 955.844 km

RAAN: 170.4714 deg

Eccentricy: 0.0034079

Argument of periapsis: 244.4481 deg

Mean anomaly: 234.6068 deg

Mean motion: 13.75211423 rev/day

Mean motion (dot): 0.00000047 rev/day2

B* drag term: 0.000033825 1/REarth

Two-line elements (TLE)

Creation date: July 6, 2025, 6:05 p.m.

Reference frame: TEME

Reference center: EARTH

Epoch: July 6, 2025, 12:18 p.m. UTC

TLE line 0: 0 COSMOS 1168

TLE line 1: 1 11735U 80022A 25187.51293517 .00000047 00000-0 33825-4 0 9991

TLE line 2: 2 11735 82.9464 170.4714 0034079 244.4481 234.6068 13.75211423272645

Live tracking on map

Real-time ground track for satellite COSMOS 1168.

In-orbit conjunctions

A list of the most updated potential collisions computed for object COSMOS 1168.

Target Orbit TCA Probability of collision Miss distance Type
FENGYUN 1C DEB SSO 2024-08-12 07:51:19 0.001467279 211.0 (m) DEBRIS

Associated space launch

Civilian navigation satellite equivalent to the purely military Parus

COSMOS 1168 was lifted into orbit during the mission ‘Kosmos-3M | Tsikada 6’, on board a Kosmos-3M space rocket.

The launch took place on March 17, 1980, 9:37 p.m. from 132/1 (132L).

For more information about the launch, click the button.

Launch to space Kosmos-3M | Tsikada 6
Kosmos-3M | Tsikada 6

Agency: N/A

Status: Launch Successful

Launch date: March 17, 1980, 9:37 p.m. UTC

Rocket: Kosmos-3M

Launch pad: 132/1 (132L)

Location: Plesetsk Cosmodrome, Russian Federation

...

Latest news about this satellite

There are no fresh news available about this satellite. Check back as we update our databases every day.


Newsletter sign-up

Weekly statistics, charts and insights to help you stay on top of the space industry.